Weather History for Boston, MA

Change the Weather History Date:

Tuesday, November 6, 2012

  Actual Average Record
Temperature  
Mean Temperature 36 °F 48 °F  
Max Temperature 41 °F 55 °F 73 °F (1938)
Min Temperature 31 °F 41 °F 21 °F (1879)
Degree Days  
Heating Degree Days 29 17  
Month to date heating degree days 121 100  
Since 1 July heating degree days 457 547  
Cooling Degree Days 0 0  
Month to date cooling degree days 0 0  
Year to date cooling degree days 905 747  
Moisture  
Dew Point 19 °F    
Average Humidity 49    
Maximum Humidity 64    
Minimum Humidity 34    
Precipitation  
Precipitation 0.00 in 0.13 in 1.58 in (1966)
Month to date precipitation 0.03 0.77  
Year to date precipitation 29.82 36.77  
Sea Level Pressure  
Sea Level Pressure 30.20 in    
Wind  
Wind Speed 8 mph (North)    
Max Wind Speed 17 mph    
Max Gust Speed 21 mph    
Visibility 10 miles    
Events      
T = Trace of Precipitation, MM = Missing Value Source: NWS Daily Summary

Daily Weather History Graph

Daily Weather History Graph

Search for Another Location

Airport:

Trip Planner

Search our weather history database for the weather conditions in past years. The results will help you decide how hot, cold, wet, or windy it might be!

Date:

Astronomy

Nov. 06, 2012 Rise Set
Actual Time 6:24 AM EST 4:30 PM EST
Civil Twilight 5:54 AM EST 5:00 PM EST
Nautical Twilight 5:21 AM EST 5:33 PM EST
Astronomical Twilight 4:48 AM EST 6:06 PM EST
Moon 11:07 PM EST (11/6) 12:13 PM EST (11/6)
Length of Visible Light 11h 05m
Length of Day
10h 06m
Waning Gibbous, 53% of the Moon is Illuminated
Nov 6
Waning Gibbous
Nov 6
Last Quarter
Nov 13
New
Nov 20
First Quarter
Nov 28
Full

Hourly Weather History & Observations

Time (EST) Temp. Windchill Dew Point Humidity Pressure Visibility Wind Dir Wind Speed Gust Speed Precip Events Conditions
12:54 AM 33.1 °F 24.9 °F 16.0 °F 50% 30.15 in 10.0 mi NW 10.4 mph - N/A   Clear
1:54 AM 33.1 °F 25.5 °F 17.1 °F 52% 30.16 in 10.0 mi NW 9.2 mph - N/A   Clear
2:54 AM 32.0 °F 24.2 °F 17.1 °F 54% 30.16 in 10.0 mi WNW 9.2 mph - N/A   Clear
3:54 AM 32.0 °F 23.6 °F 17.1 °F 54% 30.17 in 10.0 mi NW 10.4 mph - N/A   Clear
4:54 AM 30.9 °F 22.8 °F 16.0 °F 54% 30.17 in 10.0 mi NW 9.2 mph - N/A   Clear
5:54 AM 30.9 °F 22.2 °F 16.0 °F 54% 30.18 in 10.0 mi NW 10.4 mph - N/A   Clear
6:54 AM 30.9 °F 22.8 °F 17.1 °F 57% 30.20 in 10.0 mi NW 9.2 mph - N/A   Partly Cloudy
7:54 AM 34.0 °F 27.2 °F 17.1 °F 50% 30.23 in 10.0 mi NNW 8.1 mph - N/A   Partly Cloudy
8:54 AM 35.1 °F 27.9 °F 15.1 °F 44% 30.24 in 10.0 mi NW 9.2 mph - N/A   Scattered Clouds
9:54 AM 37.9 °F 33.5 °F 15.1 °F 39% 30.24 in 10.0 mi North 5.8 mph - N/A   Scattered Clouds
10:54 AM 39.0 °F 33.4 °F 15.1 °F 38% 30.24 in 10.0 mi NNW 8.1 mph - N/A   Scattered Clouds
11:54 AM 39.9 °F 37.8 °F 16.0 °F 38% 30.22 in 10.0 mi Variable 3.5 mph - N/A   Scattered Clouds
12:54 PM 39.0 °F - 14.0 °F 36% 30.21 in 10.0 mi Calm Calm - N/A   Scattered Clouds
1:54 PM 39.0 °F 34.8 °F 18.0 °F 43% 30.20 in 10.0 mi SE 5.8 mph - N/A   Scattered Clouds
2:54 PM 39.0 °F 34.8 °F 18.0 °F 43% 30.20 in 10.0 mi ESE 5.8 mph - N/A   Scattered Clouds
3:54 PM 39.0 °F 34.0 °F 19.0 °F 45% 30.19 in 10.0 mi East 6.9 mph - N/A   Scattered Clouds
4:54 PM 37.0 °F 31.6 °F 21.0 °F 52% 30.20 in 10.0 mi East 6.9 mph - N/A   Scattered Clouds
5:54 PM 37.0 °F 32.4 °F 21.9 °F 54% 30.21 in 10.0 mi East 5.8 mph - N/A   Partly Cloudy
6:54 PM 36.0 °F 30.3 °F 23.0 °F 59% 30.22 in 10.0 mi NE 6.9 mph - N/A   Clear
7:54 PM 37.0 °F 33.3 °F 23.0 °F 57% 30.22 in 10.0 mi NE 4.6 mph - N/A   Clear
8:54 PM 35.1 °F 30.1 °F 24.1 °F 64% 30.22 in 10.0 mi North 5.8 mph - N/A   Clear
9:54 PM 37.9 °F 30.0 °F 25.0 °F 60% 30.20 in 10.0 mi NE 12.7 mph 17.3 mph N/A   Clear
10:54 PM 39.0 °F 32.8 °F 26.1 °F 60% 30.17 in 10.0 mi NE 9.2 mph - N/A   Scattered Clouds
11:54 PM 41.0 °F 33.9 °F 28.0 °F 60% 30.18 in 10.0 mi East 12.7 mph - N/A   Mostly Cloudy